Flag for Pakistan Weather past 2 weeks in Lahore, Pakistan

Now
48 °F

Fog.


Feels Like: 48 °F
Forecast: 45 / 65 °F
Wind: 2 mph from Southeast

Location: Lahore Airport

Current Time: Dec 22, 2014 at 11:29:38 AM

Latest Report: Dec 22, 2014 at 10:55 AM


Visibility: 1 mi

Pressure: 30.07 "Hg

Humidity: 82%

Dew point: 43 °F

Location of LahoreLocation

Historic Weather in Lahore — Graph

°F

Lahore temperature yesterday

Maximum temperature yesterday: 50 °F (at 1:55 PM)
Minimum temperature yesterday: 39 °F (at 4:55 AM)
Average temperature yesterday: 45 °F

Past Weeks' High & Low Weather Summary

 TemperatureHumidityPressure
High77 °F (Dec 7, 1:55 PM)100% (Dec 17, 6:55 AM)30.27 "Hg (Dec 17, 6:55 AM)
Low39 °F (Dec 20, 4:30 AM)22% (Dec 7, 12:55 PM)29.59 "Hg (Dec 20, 7:00 AM)
Average53 °F72%30.09 "Hg
* Reported Dec 7 10:25 AM — Dec 22 10:25 AM, Lahore, Weather by CustomWeather, © 2014

Note: Actual official high and low records may vary slightly from our data, if they occured in-between our weather recording intervals... More about our weather records

Advertising

Lahore weather history for previous 24 hours

 ConditionsComfort  
Time TempWeatherWind HumidityBarometerVisibility
10:25 AM
Dec 22
46 °FFog.No wind87%30.07 "Hg1 mi
9:55 AM46 °FFog.5 mph82%30.09 "Hg1 mi
9:25 AM45 °FFog.5 mph87%30.07 "Hg1 mi
8:55 AM45 °FFog.6 mph87%30.07 "Hg1 mi
8:25 AM45 °FFog.6 mph87%30.07 "Hg1 mi
7:55 AM45 °FFog.6 mph81%30.04 "Hg1 mi
7:25 AM43 °FFog.5 mph87%30.04 "Hg1 mi
6:55 AM41 °FFog.No wind93%30.04 "Hg1 mi
6:25 AM41 °FFog.3 mph93%30.04 "Hg1 mi
5:55 AM41 °FFog.5 mph93%30.04 "Hg1 mi
4:55 AM41 °FFog.5 mph93%30.04 "Hg1 mi
2:25 AM43 °FFog.No wind87%30.04 "Hg1 mi
1:55 AM43 °FFog.No wind87%30.07 "Hg1 mi
1:25 AM43 °FFog.No wind87%30.07 "Hg1 mi
12:55 AM43 °FFog.3 mph87%30.07 "Hg1 mi
12:25 AM45 °FFog.No wind81%30.07 "Hg1 mi
11:55 PM
Dec 21
45 °FFog.No wind81%30.07 "Hg1 mi
11:25 PM45 °FFog.3 mph87%30.09 "Hg1 mi
10:55 PM45 °FFog.No wind87%30.09 "Hg1 mi
10:25 PM45 °FFog.No wind87%30.09 "Hg1 mi
9:55 PM45 °FFog.No wind87%30.09 "Hg1 mi
9:25 PM46 °FFog.3 mph82%30.09 "Hg1 mi
8:55 PM46 °FFog.3 mph82%30.09 "Hg1 mi
8:25 PM46 °FFog.5 mph87%30.09 "Hg1 mi
7:55 PM46 °FFog.5 mph87%30.07 "Hg1 mi
7:30 PM46 °FFog.5 mph87%30.07 "Hg1 mi
6:59 PM48 °FFog.6 mph87%N/A1 mi
6:30 PM48 °FFog.3 mph87%30.07 "Hg1 mi
5:59 PM48 °FFog.2 mph87%30.07 "Hg1 mi
5:30 PM48 °FFog.No wind87%30.04 "Hg1 mi
4:55 PM50 °FFog.2 mph82%30.04 "Hg1 mi
4:30 PM50 °FFog.3 mph82%30.04 "Hg1 mi
3:55 PM50 °FFog.3 mph82%30.04 "Hg1 mi
3:30 PM50 °FFog.No wind82%30.04 "Hg1 mi
2:55 PM50 °FFog.3 mph82%30.07 "Hg1 mi
2:25 PM50 °FFog.No wind82%30.04 "Hg1 mi
1:55 PM50 °FFog.5 mph82%30.04 "Hg1 mi
1:25 PM48 °FFog.3 mph82%30.07 "Hg1 mi
12:25 PM46 °FFog.6 mph87%30.09 "Hg1 mi
11:55 AM46 °FFog.3 mph87%30.09 "Hg1 mi
11:25 AM45 °FFog.6 mph100%30.09 "Hg1 mi
Weather by CustomWeather, © 2014

See weather overviewHow to use our weather pages